Wind_Speed
38 38 38 38 39 40 41 42 41 40 39 40 40 42 43 43 43 44 44 46 46 46 47 47 46 46 46 45 43 41 41 40 40 39 38 39 39 39
39 39 38 38 39 40 41 42 41 40 39 39 39 40 41 42 43 44 44 45 45 46 46 46 45 45 45 43 42 41 40 40 39 38 38 39 38 39
41 40 39 38 38 39 40 40 40 40 40 39 38 39 40 41 42 43 44 44 44 45 46 45 44 44 44 44 42 41 40 38 38 38 38 38 38 38
40 40 39 38 38 39 39 39 39 39 39 38 38 39 40 41 42 43 44 44 45 45 45 44 44 44 43 43 40 38 37 37 37 37 37 36 37 36
40 39 39 38 39 38 38 38 38 38 39 39 39 40 40 41 42 44 44 45 45 45 45 44 43 42 41 39 37 36 36 36 36 36 36 35 34 33
38 38 38 38 38 38 38 38 38 38 39 39 40 40 41 42 43 44 43 44 44 44 43 42 40 39 38 36 35 35 35 35 36 36 35 34 33 32
37 37 37 37 38 38 38 38 38 39 39 40 41 41 41 42 43 43 43 43 43 42 40 39 38 36 36 35 35 34 34 35 35 34 33 32 32 31
38 37 37 37 37 38 38 38 38 39 40 41 41 42 42 43 43 43 42 41 39 39 37 36 36 35 34 33 33 33 33 33 33 32 31 31 30 29
38 38 38 38 38 38 38 39 39 40 41 41 42 41 42 44 44 42 40 38 37 36 35 34 34 33 33 33 32 32 32 32 32 31 31 30 29 28
38 38 38 38 38 39 39 39 40 40 40 41 40 40 41 41 40 39 37 36 36 35 34 33 33 33 33 33 33 32 32 32 31 31 30 29 28 27
38 38 38 39 39 39 39 38 38 38 39 39 38 39 39 39 37 36 36 36 35 34 34 33 33 33 32 32 32 32 32 31 30 30 30 28 27 26
38 38 38 38 38 37 37 37 37 37 38 38 38 37 37 37 37 36 35 34 34 33 33 33 33 33 32 32 32 31 31 31 29 29 28 27 25 25
37 37 37 37 37 37 37 37 36 36 36 36 36 36 36 36 35 34 33 33 33 32 32 33 34 34 34 32 30 30 29 29 28 27 26 25 24 24
35 34 35 35 34 34 34 34 35 35 35 34 35 34 34 34 33 33 33 32 32 32 32 33 33 33 32 31 29 28 27 27 26 25 24 23 22 22
33 32 32 32 32 32 33 32 32 32 33 34 34 34 33 33 32 32 32 32 32 32 32 32 32 31 30 29 27 26 26 25 24 22 22 22 21 21
33 32 31 30 31 31 32 32 31 31 32 33 32 32 31 31 31 31 30 30 31 30 31 31 30 29 28 27 26 24 23 23 22 21 21 20 19 19
33 33 32 31 31 31 31 31 32 33 32 32 31 31 29 29 29 28 28 28 29 29 28 28 28 27 25 24 23 22 21 21 20 20 20 19 18 17
32 32 31 31 31 31 31 31 32 32 31 30 29 28 27 27 26 26 26 26 26 26 26 25 24 23 22 21 21 20 19 19 18 18 18 17 17 16
30 30 30 30 29 29 30 30 31 30 29 28 26 26 26 25 24 24 23 23 23 23 22 22 21 19 19 18 18 19 18 17 16 16 16 15 15 13
29 29 29 29 29 29 29 29 29 28 27 25 25 24 24 22 21 21 21 20 20 19 19 18 18 17 17 16 16 16 16 15 14 15 15 15 14 13
29 28 28 28 28 28 28 27 27 26 24 24 23 22 21 19 18 18 18 18 17 16 15 15 16 16 16 16 15 15 14 14 14 14 14 13 13 13
28 27 26 26 26 25 25 24 23 22 21 21 20 18 18 16 16 16 16 15 14 13 13 13 13 14 15 15 15 15 14 14 14 13 13 12 13 14
26 25 25 25 25 24 23 21 20 19 18 18 17 16 15 14 13 13 13 12 12 11 11 11 11 12 12 13 14 14 13 13 13 13 13 13 13 14
Wind_Direction
275 278 280 282 285 287 288 290 293 295 296 297 298 299 301 303 304 305 306 307 308 308 309 308 308 308 309 309 308 308 307 307 306 305 304 304 302 300
273 276 279 281 284 286 288 290 292 294 296 296 297 300 301 303 304 306 306 308 309 309 309 309 308 308 309 309 308 308 307 307 307 307 305 305 304 302
272 274 277 281 283 285 288 290 291 293 295 296 298 300 302 304 305 306 306 308 309 309 310 309 309 309 309 309 308 307 307 307 307 308 307 306 305 304
272 274 277 280 283 285 287 289 291 293 295 296 298 300 302 303 305 307 308 309 310 310 310 309 309 308 308 309 309 308 309 309 309 310 309 308 307 305
272 274 276 279 282 285 286 288 290 292 294 297 299 300 302 303 305 308 309 309 310 311 311 309 308 309 309 310 310 311 310 310 310 310 310 310 309 307
270 272 274 278 281 284 286 288 290 292 293 296 299 300 302 304 306 307 308 310 311 311 311 310 310 310 310 309 310 311 310 310 310 311 310 310 310 309
269 272 273 278 281 283 285 287 290 291 293 295 298 300 302 304 305 307 308 310 311 312 312 311 310 310 309 308 310 311 311 311 311 311 310 310 310 309
269 272 274 277 280 282 285 287 289 292 294 295 298 300 301 303 305 307 310 311 311 311 312 311 311 310 310 311 312 313 313 313 313 313 312 311 311 310
269 272 275 277 278 280 283 285 288 291 294 296 298 300 301 302 305 307 310 312 312 313 312 312 312 313 312 312 313 314 314 314 314 314 314 313 312 311
269 272 274 276 277 280 282 285 287 290 293 296 299 300 301 303 305 308 311 312 312 313 313 313 314 313 313 313 313 314 314 315 315 314 315 315 314 314
270 272 274 277 279 280 282 284 286 289 293 296 299 301 302 305 306 308 310 311 312 312 313 313 313 314 314 314 314 315 316 315 314 314 315 314 313 314
270 273 274 276 278 279 281 283 287 289 291 294 298 300 302 304 306 307 309 311 312 312 313 313 314 315 315 316 316 316 316 316 314 314 314 314 314 315
269 272 274 277 278 278 281 284 286 288 291 293 297 299 300 303 305 306 308 310 311 313 313 314 316 318 318 318 318 319 319 318 317 315 314 314 315 315
267 271 273 275 276 277 281 284 286 289 291 293 296 298 300 302 304 305 307 309 310 312 313 314 317 318 319 319 319 320 321 321 321 320 319 318 317 317
265 269 272 274 275 277 281 285 288 290 292 294 296 297 298 300 302 304 306 307 309 311 312 314 316 317 318 320 320 321 321 322 325 324 322 321 320 320
264 267 270 273 275 277 281 285 287 290 292 295 296 297 298 299 301 303 305 307 309 311 313 315 316 316 318 319 321 322 325 326 327 327 326 325 325 324
263 265 267 270 274 277 280 284 287 290 292 294 296 297 297 299 301 303 305 307 310 312 314 316 317 318 319 320 323 324 326 328 329 330 330 330 329 328
262 265 267 270 273 276 279 283 287 289 292 294 296 297 298 300 301 303 306 309 312 315 317 319 320 321 321 322 324 325 326 328 331 334 334 334 336 335
263 265 267 269 273 276 279 281 285 287 290 292 294 296 298 299 301 304 308 312 314 317 320 323 326 327 329 329 328 327 328 330 334 338 340 343 345 346
263 265 267 270 273 276 278 280 283 285 287 288 291 294 297 298 300 304 309 313 316 320 323 328 332 335 337 337 338 338 336 338 342 346 349 352 356 357
263 265 268 271 274 275 277 279 281 283 284 285 288 291 296 298 300 303 309 314 317 321 325 331 337 342 346 347 348 348 349 351 353 354 358 4 8 11
263 265 268 271 273 273 274 276 277 279 281 282 284 289 294 299 302 304 310 314 317 321 327 335 342 348 352 356 359 3 6 5 6 9 13 14 15 19
262 265 268 271 272 271 271 272 273 274 278 280 282 287 293 297 302 306 311 314 318 322 329 337 345 351 356 2 6 11 16 18 19 20 24 25 25 28
Height
5722 5721 5720 5718 5716 5714 5711 5708 5705 5701 5698 5692 5687 5681 5676 5671 5666 5660 5654 5648 5642 5635 5628 5622 5615 5609 5603 5596 5590 5585 5579 5574 5568 5563 5557 5552 5547 5542
5712 5711 5710 5709 5706 5704 5702 5698 5695 5691 5688 5683 5678 5673 5668 5662 5657 5651 5645 5639 5632 5625 5618 5612 5605 5599 5593 5586 5581 5575 5570 5564 5559 5553 5548 5542 5537 5532
5702 5702 5701 5699 5697 5695 5692 5689 5685 5682 5678 5675 5669 5664 5659 5654 5648 5642 5636 5629 5623 5616 5609 5602 5596 5589 5583 5577 5571 5565 5560 5555 5549 5544 5538 5533 5527 5522
5693 5692 5691 5689 5687 5685 5682 5679 5676 5672 5669 5666 5661 5656 5651 5645 5640 5634 5627 5620 5614 5607 5600 5593 5586 5580 5573 5567 5561 5556 5551 5546 5541 5535 5529 5524 5518 5513
5682 5682 5681 5680 5678 5676 5673 5670 5667 5664 5660 5656 5652 5647 5642 5636 5631 5625 5618 5611 5604 5597 5590 5584 5577 5570 5564 5558 5553 5548 5543 5538 5532 5526 5521 5515 5510 5504
5672 5672 5671 5670 5668 5666 5664 5661 5658 5655 5651 5647 5643 5638 5633 5628 5622 5616 5610 5603 5596 5588 5581 5574 5568 5562 5556 5551 5546 5540 5535 5529 5524 5518 5513 5507 5502 5497
5662 5662 5661 5660 5659 5657 5655 5652 5649 5646 5643 5639 5634 5629 5624 5619 5614 5607 5600 5594 5587 5580 5573 5566 5560 5555 5549 5543 5538 5533 5527 5522 5516 5511 5505 5500 5495 5490
5652 5652 5651 5650 5649 5647 5645 5643 5640 5637 5634 5630 5625 5620 5615 5610 5604 5598 5591 5585 5579 5573 5566 5560 5554 5548 5542 5537 5531 5526 5520 5514 5509 5503 5498 5492 5487 5483
5642 5642 5641 5640 5639 5637 5635 5633 5630 5627 5624 5620 5616 5611 5606 5601 5595 5590 5583 5576 5570 5564 5559 5554 5547 5541 5535 5530 5524 5519 5513 5508 5502 5496 5491 5486 5480 5475
5632 5632 5631 5630 5629 5628 5626 5623 5621 5618 5615 5611 5607 5602 5597 5591 5586 5580 5574 5570 5564 5557 5552 5547 5541 5535 5529 5523 5517 5512 5507 5501 5495 5490 5484 5479 5474 5469
5621 5621 5621 5620 5619 5617 5616 5614 5612 5609 5605 5602 5597 5593 5588 5583 5577 5573 5568 5563 5558 5552 5545 5540 5535 5530 5524 5518 5511 5505 5499 5494 5488 5483 5478 5473 5468 5463
5611 5611 5611 5610 5608 5607 5606 5604 5602 5600 5597 5593 5589 5584 5580 5575 5570 5565 5560 5556 5551 5546 5539 5534 5528 5523 5519 5513 5506 5499 5493 5488 5482 5477 5472 5467 5462 5458
5601 5601 5600 5599 5598 5597 5596 5594 5592 5590 5587 5584 5580 5576 5572 5567 5563 5558 5553 5549 5543 5538 5533 5527 5522 5515 5510 5506 5501 5494 5488 5482 5476 5471 5466 5462 5457 5453
5591 5591 5590 5590 5589 5588 5586 5585 5583 5581 5578 5575 5572 5568 5564 5560 5556 5551 5547 5542 5536 5531 5526 5520 5515 5509 5504 5499 5494 5489 5483 5477 5471 5466 5461 5456 5452 5448
5581 5581 5581 5580 5579 5579 5578 5576 5574 5572 5570 5567 5564 5560 5557 5553 5548 5544 5540 5535 5530 5524 5519 5513 5508 5503 5498 5493 5488 5483 5478 5473 5467 5462 5457 5452 5448 5444
5571 5572 5572 5571 5571 5570 5569 5568 5566 5564 5561 5559 5555 5552 5549 5545 5541 5537 5533 5528 5524 5519 5513 5508 5502 5497 5493 5488 5483 5478 5473 5468 5464 5458 5454 5449 5444 5440
5561 5562 5562 5562 5562 5562 5561 5559 5558 5556 5553 5550 5547 5544 5541 5538 5534 5530 5526 5522 5518 5513 5508 5503 5497 5492 5487 5483 5479 5474 5469 5465 5460 5455 5451 5446 5442 5438
5552 5552 5553 5553 5553 5553 5552 5551 5549 5547 5544 5542 5539 5537 5534 5531 5528 5524 5521 5517 5512 5508 5503 5498 5493 5489 5484 5480 5476 5471 5466 5462 5458 5453 5449 5444 5441 5437
5543 5543 5544 5545 5544 5544 5543 5542 5540 5538 5536 5535 5532 5530 5527 5525 5522 5519 5516 5512 5507 5503 5499 5494 5490 5485 5481 5477 5473 5468 5463 5459 5455 5452 5447 5443 5440 5436
5534 5535 5535 5536 5535 5535 5534 5533 5532 5530 5529 5527 5526 5524 5521 5519 5516 5514 5511 5507 5504 5500 5496 5492 5487 5483 5479 5475 5471 5466 5461 5457 5454 5450 5447 5443 5439 5436
5526 5527 5527 5527 5527 5526 5526 5525 5524 5523 5522 5521 5519 5517 5515 5513 5511 5509 5506 5503 5500 5497 5493 5490 5486 5482 5477 5473 5469 5465 5461 5456 5453 5449 5446 5443 5440 5438
5517 5518 5518 5518 5518 5518 5517 5517 5516 5516 5515 5514 5513 5512 5510 5509 5507 5505 5503 5500 5497 5494 5491 5488 5485 5481 5478 5474 5469 5465 5461 5458 5454 5450 5447 5444 5442 5439
5509 5510 5510 5510 5510 5510 5510 5510 5510 5509 5509 5508 5507 5507 5505 5504 5503 5501 5499 5497 5495 5492 5490 5487 5484 5481 5478 5474 5470 5467 5463 5459 5456 5453 5450 5446 5443 5440